Location: Rounton
(54.4000°N, 1.3500°W)
Time: 08:05:25
(UTC+00:00)

Vanguard 1 Rocket - Pass Details

Date: 03 December 2021
Orbit: 651 x 4224 km, 34.3° (Epoch: 19 January)

Event Time Altitude Azimuth Distance (km) Brightness Sun altitude
Rises 09:43:25 0° 273° (W) 7,280 11.7 8.4°
Reaches altitude 10° 09:50:50 10° 257° (WSW) 6,802 11.7 8.9°
Maximum altitude 10:03:02 17° 225° (SW) 6,699 12.1 9.7°
Drops below altitude 10° 10:16:21 10° 194° (SSW) 7,372 13.0 10.5°
Sets 10:25:20 0° 178° (S) 8,113 13.8 11.0°
